Change the Weather History Date:

Friday, May 9, 2014

  Actual Average Record
Temperature  
Mean Temperature 58 °F -  
Max Temperature 68 °F 69 °F 89 °F (2011)
Min Temperature 49 °F 44 °F 29 °F (1968)
Degree Days  
Heating Degree Days 6    
Growing Degree Days 8 (Base 50)    
Moisture  
Dew Point 37 °F    
Average Humidity 54    
Maximum Humidity 77    
Minimum Humidity 21    
Precipitation  
Precipitation 0.00 in - - ()
Sea Level Pressure  
Sea Level Pressure 29.80 in    
Wind  
Wind Speed 16 mph (West)    
Max Wind Speed 23 mph    
Max Gust Speed 29 mph    
Visibility 10 miles    
Events      
Averages and records for this station are not official NWS values.
T = Trace of Precipitation, MM = Missing Value Source: NWS Daily Summary

Daily Weather History Graph

Daily Weather History Graph

Search for Another Location

Airport or City:

Trip Planner

Search our weather history database for the weather conditions in past years. The results will help you decide how hot, cold, wet, or windy it might be!

Date:

Astronomy

May. 09, 2014 Rise Set
Actual Time 6:03 AM CDT 8:23 PM CDT
Civil Twilight 5:31 AM CDT 8:55 PM CDT
Nautical Twilight 4:53 AM CDT 9:33 PM CDT
Astronomical Twilight 4:10 AM CDT 10:16 PM CDT
Moon 3:17 PM CDT (5/9) 3:10 AM CDT (5/9)
Length of Visible Light 15h 23m
Length of Day
14h 20m
Waxing Gibbous, 74% of the Moon is Illuminated
May 9
Waxing Gibbous
May 14
Full
May 21
Last Quarter
May 28
New
Jun 5
First Quarter

Hourly Weather History & Observations

Time (CDT) Temp. Dew Point Humidity Pressure Visibility Wind Dir Wind Speed Gust Speed Precip Events Conditions
12:15 AM 53.8 °F 45.3 °F 73% 29.73 in 10.0 mi West 19.6 mph - N/A   Clear
12:35 AM 52.7 °F 45.3 °F 76% 29.73 in 10.0 mi West 17.3 mph 23.0 mph N/A   Clear
12:55 AM 52.0 °F 44.6 °F 76% 29.74 in 10.0 mi West 12.7 mph 21.9 mph N/A   Clear
1:15 AM 51.3 °F 43.3 °F 74% 29.74 in 10.0 mi West 17.3 mph 26.5 mph N/A   Scattered Clouds
1:35 AM 50.9 °F 43.0 °F 74% 29.74 in 10.0 mi West 19.6 mph - N/A   Scattered Clouds
1:55 AM 51.8 °F 43.2 °F 72% 29.73 in 10.0 mi West 13.8 mph - N/A   Overcast
2:15 AM 51.4 °F 43.3 °F 74% 29.72 in 10.0 mi West 13.8 mph - N/A   Overcast
2:35 AM 51.3 °F 43.9 °F 76% 29.72 in 10.0 mi West 16.1 mph 24.2 mph N/A   Overcast
2:55 AM 50.9 °F 43.0 °F 74% 29.72 in 10.0 mi West 23.0 mph 26.5 mph N/A   Mostly Cloudy
3:15 AM 49.6 °F 42.4 °F 76% 29.72 in 10.0 mi West 17.3 mph - N/A   Mostly Cloudy
3:35 AM 49.1 °F 42.1 °F 77% 29.73 in 10.0 mi West 18.4 mph 23.0 mph N/A   Mostly Cloudy
3:55 AM 49.3 °F 42.3 °F 77% 29.74 in 10.0 mi West 20.7 mph 24.2 mph N/A   Overcast
4:15 AM 49.3 °F 41.9 °F 76% 29.74 in 10.0 mi West 17.3 mph 25.3 mph N/A   Overcast
4:35 AM 49.6 °F 41.9 °F 75% 29.75 in 10.0 mi West 18.4 mph - N/A   Overcast
4:55 AM 49.6 °F 42.1 °F 75% 29.75 in 10.0 mi West 16.1 mph 23.0 mph N/A   Overcast
5:15 AM 49.6 °F 42.4 °F 76% 29.76 in 10.0 mi West 15.0 mph - N/A   Overcast
5:35 AM 49.6 °F 42.4 °F 76% 29.76 in 10.0 mi West 15.0 mph 18.4 mph N/A   Overcast
5:55 AM 49.5 °F 42.3 °F 76% 29.77 in 10.0 mi West 17.3 mph - N/A   Overcast
6:15 AM 49.5 °F 42.1 °F 76% 29.79 in 10.0 mi West 18.4 mph 21.9 mph N/A   Overcast
6:35 AM 49.5 °F 41.9 °F 75% 29.79 in 10.0 mi WNW 17.3 mph 21.9 mph N/A   Overcast
6:55 AM 49.5 °F 41.7 °F 75% 29.80 in 10.0 mi WNW 17.3 mph - N/A   Overcast
7:15 AM 49.5 °F 41.9 °F 75% 29.80 in 10.0 mi West 16.1 mph 21.9 mph N/A   Overcast
7:35 AM 49.6 °F 42.1 °F 75% 29.80 in 10.0 mi West 16.1 mph 23.0 mph N/A   Overcast
7:55 AM 49.6 °F 41.9 °F 75% 29.81 in 10.0 mi West 17.3 mph - N/A   Overcast
8:15 AM 49.6 °F 41.4 °F 73% 29.81 in 10.0 mi West 19.6 mph 27.6 mph N/A   Overcast
8:35 AM 50.0 °F 41.2 °F 72% 29.81 in 10.0 mi West 23.0 mph 28.8 mph N/A   Overcast
8:55 AM 50.0 °F 41.4 °F 72% 29.82 in 10.0 mi West 20.7 mph 27.6 mph N/A   Overcast
9:15 AM 49.6 °F 41.0 °F 72% 29.83 in 10.0 mi WNW 13.8 mph - N/A   Overcast
9:35 AM 50.2 °F 41.4 °F 72% 29.83 in 10.0 mi West 18.4 mph 23.0 mph N/A   Overcast
9:55 AM 50.9 °F 41.0 °F 69% 29.83 in 10.0 mi WNW 18.4 mph - N/A   Overcast
10:15 AM 51.6 °F 41.2 °F 68% 29.82 in 10.0 mi West 20.7 mph 27.6 mph N/A   Overcast
10:35 AM 51.8 °F 41.0 °F 67% 29.83 in 10.0 mi WNW 18.4 mph 26.5 mph N/A   Overcast
10:55 AM 52.0 °F 40.8 °F 66% 29.83 in 10.0 mi WNW 17.3 mph 28.8 mph N/A   Overcast
11:15 AM 52.9 °F 41.4 °F 65% 29.83 in 10.0 mi WNW 15.0 mph 24.2 mph N/A   Overcast
11:35 AM 54.7 °F 41.7 °F 62% 29.83 in 10.0 mi WNW 13.8 mph 23.0 mph N/A   Overcast
11:55 AM 55.4 °F 41.4 °F 59% 29.84 in 10.0 mi West 17.3 mph 25.3 mph N/A   Overcast
12:15 PM 56.8 °F 41.4 °F 56% 29.83 in 10.0 mi WNW 13.8 mph 26.5 mph N/A   Mostly Cloudy
12:35 PM 57.6 °F 40.5 °F 53% 29.83 in 10.0 mi WNW 17.3 mph 21.9 mph N/A   Mostly Cloudy
12:55 PM 58.8 °F 41.0 °F 52% 29.83 in 10.0 mi WNW 13.8 mph 19.6 mph N/A   Overcast
1:15 PM 61.2 °F 40.5 °F 47% 29.82 in 10.0 mi WNW 13.8 mph 17.3 mph N/A   Overcast
1:35 PM 60.4 °F 39.0 °F 45% 29.82 in 10.0 mi WNW 11.5 mph 20.7 mph N/A   Overcast
1:55 PM 61.7 °F 38.3 °F 42% 29.81 in 10.0 mi WNW 13.8 mph 25.3 mph N/A   Mostly Cloudy
2:15 PM 64.0 °F 37.8 °F 38% 29.81 in 10.0 mi WNW 13.8 mph 26.5 mph N/A   Mostly Cloudy
2:35 PM 64.9 °F 36.3 °F 35% 29.81 in 10.0 mi West 13.8 mph 25.3 mph N/A   Mostly Cloudy
2:55 PM 65.7 °F 35.1 °F 32% 29.81 in 10.0 mi WNW 12.7 mph 23.0 mph N/A   Scattered Clouds
3:15 PM 65.7 °F 33.8 °F 31% 29.81 in 10.0 mi WNW 16.1 mph 25.3 mph N/A   Scattered Clouds
3:35 PM 66.4 °F 32.4 °F 28% 29.81 in 10.0 mi West 16.1 mph 25.3 mph N/A   Scattered Clouds
3:55 PM 67.3 °F 29.5 °F 24% 29.80 in 10.0 mi West 9.2 mph 27.6 mph N/A   Scattered Clouds
4:15 PM 67.5 °F 29.7 °F 24% 29.80 in 10.0 mi West 19.6 mph 24.2 mph N/A   Scattered Clouds
4:35 PM 68.0 °F 27.9 °F 22% 29.80 in 10.0 mi West 12.7 mph 25.3 mph N/A   Clear
4:55 PM 68.5 °F 28.9 °F 23% 29.80 in 10.0 mi West 18.4 mph 24.2 mph N/A   Scattered Clouds
5:15 PM 67.5 °F 27.9 °F 23% 29.80 in 10.0 mi West 16.1 mph 24.2 mph N/A   Clear
5:35 PM 68.4 °F 27.0 °F 21% 29.80 in 10.0 mi West 16.1 mph 23.0 mph N/A   Clear
5:55 PM 68.4 °F 26.8 °F 21% 29.80 in 10.0 mi West 18.4 mph 25.3 mph N/A   Clear
6:15 PM 68.2 °F 27.0 °F 21% 29.80 in 10.0 mi West 18.4 mph 25.3 mph N/A   Clear
6:35 PM 68.0 °F 27.5 °F 22% 29.80 in 10.0 mi West 15.0 mph 21.9 mph N/A   Clear
6:55 PM 67.6 °F 27.5 °F 22% 29.80 in 10.0 mi West 13.8 mph 20.7 mph N/A   Clear
7:15 PM 67.1 °F 27.1 °F 22% 29.80 in 10.0 mi West 11.5 mph 18.4 mph N/A   Clear
7:35 PM 66.6 °F 27.5 °F 23% 29.80 in 10.0 mi West 10.4 mph - N/A   Clear
7:55 PM 65.8 °F 28.0 °F 24% 29.81 in 10.0 mi West 9.2 mph - N/A   Clear
8:15 PM 62.8 °F 30.6 °F 30% 29.81 in 10.0 mi WSW 6.9 mph - N/A   Clear
8:35 PM 61.2 °F 31.8 °F 33% 29.81 in 10.0 mi SW 5.8 mph - N/A   Clear
8:55 PM 59.0 °F 31.8 °F 36% 29.81 in 10.0 mi SW 6.9 mph - N/A   Clear
9:15 PM 57.4 °F 32.7 °F 39% 29.81 in 10.0 mi SW 8.1 mph - N/A   Clear
9:35 PM 55.2 °F 32.2 °F 42% 29.82 in 10.0 mi SW 8.1 mph - N/A   Clear
9:55 PM 52.3 °F 32.0 °F 46% 29.82 in 10.0 mi SSW 8.1 mph - N/A   Clear
10:15 PM 52.5 °F 32.7 °F 47% 29.83 in 10.0 mi SSW 9.2 mph - N/A   Clear
10:35 PM 50.0 °F 32.2 °F 50% 29.84 in 10.0 mi SSW 8.1 mph - N/A   Clear
10:55 PM 50.5 °F 33.6 °F 52% 29.84 in 10.0 mi SSW 9.2 mph - N/A   Clear
11:15 PM 49.8 °F 33.3 °F 53% 29.84 in 10.0 mi SSW 8.1 mph - N/A   Clear
11:35 PM 50.0 °F 34.7 °F 56% 29.85 in 10.0 mi SSW 9.2 mph - N/A   Clear
11:55 PM 49.3 °F 35.1 °F 58% 29.84 in 10.0 mi SSW 9.2 mph - N/A   Clear